Location: Chatou
(48.8898°N, 2.1586°E)
Time: 07:40:01
(UTC+00:00)

STRAND 1 - Visible Passes

Search period start: 03 December 2023 00:00
Search period end: 13 December 2023 00:00
Orbit: 765 x 779 km, 98.4° (Epoch: 02 December)

Date Brightness Start Highest point End Pass type
(mag) Time Alt. Az. Time Alt. Az. Time Alt. Az.
03 Dec ? 03:46:25 10° E 03:49:24 16° NE 03:52:24 10° NNE visible
03 Dec ? 05:22:43 10° SSE 05:27:50 88° ENE 05:32:58 10° NNW visible
03 Dec ? 17:33:11 23° E 17:33:18 23° E 17:37:16 10° SE visible
03 Dec ? 19:13:32 50° WSW 19:13:32 50° WSW 19:17:44 10° SSW visible
04 Dec ? 04:48:23 10° SE 04:53:14 46° ENE 04:58:07 10° N visible
04 Dec ? 06:28:17 10° SSW 06:32:35 27° W 06:36:56 10° NW visible
04 Dec ? 16:58:06 11° E 16:58:09 11° E 16:59:41 10° ESE visible
04 Dec ? 18:38:26 75° SE 18:38:26 75° SE 18:43:14 10° S visible
04 Dec ? 20:18:48 15° W 20:18:48 15° W 20:20:08 10° W visible
05 Dec ? 04:14:41 10° ESE 04:18:49 26° ENE 04:22:58 10° N visible
05 Dec ? 05:52:42 10° S 05:57:41 53° W 06:02:41 10° NNW visible
05 Dec ? 18:03:21 39° E 18:03:21 39° E 18:08:06 10° SSE visible
05 Dec ? 19:43:42 28° W 19:43:42 28° W 19:46:53 10° SW visible
06 Dec ? 03:41:52 10° E 03:44:34 15° NE 03:47:17 10° NNE visible
06 Dec ? 05:17:50 10° SSE 05:22:56 81° ENE 05:28:04 10° NNW visible
06 Dec ? 17:28:14 21° E 17:28:21 21° E 17:32:07 10° SE visible
06 Dec ? 19:08:36 55° WSW 19:08:36 55° WSW 19:12:54 10° SSW visible
07 Dec ? 04:43:35 10° SE 04:48:22 42° ENE 04:53:10 10° N visible
07 Dec ? 06:23:12 10° SSW 06:27:38 30° W 06:32:06 10° NNW visible
07 Dec ? 16:53:08 10° E 16:53:09 10° E 16:53:28 10° E visible
07 Dec ? 18:33:28 70° SE 18:33:28 70° SE 18:38:18 10° S visible
07 Dec ? 20:13:50 16° W 20:13:50 16° W 20:15:29 10° WSW visible
08 Dec ? 04:09:58 10° ESE 04:13:58 24° ENE 04:17:58 10° N visible
08 Dec ? 05:47:44 10° S 05:52:45 58° W 05:57:47 10° NNW visible
08 Dec ? 17:58:21 36° E 17:58:23 36° E 18:03:04 10° SSE visible
08 Dec ? 19:38:42 31° W 19:38:42 31° W 19:42:06 10° SW visible
09 Dec ? 03:37:19 10° E 03:39:44 13° NE 03:42:08 10° NNE visible
09 Dec ? 05:12:57 10° SSE 05:18:01 74° ENE 05:23:08 10° N visible
09 Dec ? 06:54:29 10° SW 06:57:44 17° W 07:01:01 10° NW visible
09 Dec ? 17:23:14 19° E 17:23:22 19° E 17:26:55 10° SE visible
09 Dec ? 19:03:35 61° WSW 19:03:35 61° WSW 19:08:02 10° SSW visible
10 Dec ? 04:38:46 10° SE 04:43:28 39° ENE 04:48:09 10° N visible
10 Dec ? 06:18:07 10° SSW 06:22:40 32° W 06:27:15 10° NNW visible
10 Dec ? 18:28:26 64° ESE 18:28:26 64° ESE 18:33:21 10° S visible
10 Dec ? 20:08:47 18° W 20:08:47 18° W 20:10:47 10° WSW visible
11 Dec ? 04:05:15 10° ESE 04:09:05 22° ENE 04:12:55 10° N visible
11 Dec ? 05:42:45 10° S 05:47:48 63° WSW 05:52:52 10° NNW visible
11 Dec ? 17:53:17 33° E 17:53:25 33° E 17:58:00 10° SSE visible
11 Dec ? 19:33:38 34° W 19:33:38 34° W 19:37:17 10° SW visible
12 Dec ? 03:32:49 10° ENE 03:34:52 12° NE 03:36:54 10° NNE visible
12 Dec ? 05:08:02 10° SSE 05:13:05 68° ENE 05:18:02 11° N visible
12 Dec ? 06:49:13 10° SW 06:52:44 19° W 06:56:16 10° NW visible
12 Dec ? 17:18:08 17° E 17:18:21 17° E 17:21:40 10° SE visible
12 Dec ? 18:58:29 68° WSW 18:58:29 68° WSW 19:03:07 10° SSW visible
